This demonstration page uses our WeatherBlox Daily Observations layout. Learn more.

Left ArrowRight Arrow

Hourly Observations for May 23, 2021

Temp ( °F °C ) Dew Point ( °F °C ) Humidity (%) Winds ( mph kmh ) Pressure ( in mb ) Visibility ( mi km ) Precip ( " mm )
12:03 am 00:03 Mostly Cloudy 68 20 64 18 88 88 SSE 14 22 30.10 1019 10 16 0.00 0.00
12:56 am 00:56 Cloudy 67 19.4 65 18.3 93 93 SSE 15 24 30.15 1021 10 16 0.00 0.00
1:56 am 01:56 Cloudy 68 20 65 18.3 90 90 S 14 22 30.15 1021 10 16 0.00 0.00
2:31 am 02:31 Cloudy 68 20 64 18 88 88 S 15 24 30.11 1020 10 16 0.00 0.00
2:54 am 02:54 Partly Cloudy 66 19 64 18 94 94 S 13 20 30.10 1019 10 16 0.00 0.00
2:56 am 02:56 Mostly Clear 67 19.4 65 18.3 93 93 S 13 20 30.13 1020 10 16 0.00 0.00
3:23 am 03:23 Mostly Cloudy 66 19 64 18 94 94 S 12 19 30.10 1019 10 16 0.00 0.00
3:56 am 03:56 Mostly Cloudy 67 19.4 65 18.3 93 93 S 12 19 30.13 1020 10 16 0.00 0.00
4:56 am 04:56 Cloudy 67 19.4 65 18.3 93 93 SSE 8 13 30.11 1020 10 16 0.00 0.00
5:11 am 05:11 Cloudy 66 19 64 18 94 94 SSE 9 15 30.08 1019 10 16 0.00 0.00
5:56 am 05:56 Cloudy 66 18.9 64 17.8 93 93 S 9 15 30.11 1020 10 16 0.00 0.00
6:15 am 06:15 Cloudy 66 19 64 18 94 94 SSE 9 15 30.08 1019 10 16 0.00 0.00
6:40 am 06:40 Cloudy 66 19 64 18 94 94 S 6 9 30.08 1019 10 16 0.00 0.00
6:56 am 06:56 Cloudy 66 18.9 65 18.3 96 96 SSE 12 19 30.10 1019 10 16 0.00 0.00
7:56 am 07:56 Cloudy 67 19.4 64 17.8 91 91 SSE 16 26 30.11 1020 10 16 0.00 0.00
8:41 am 08:41 Cloudy 70 21 64 18 83 83 S 21 33 30.08 1019 10 16 0.00 0.00
8:56 am 08:56 Cloudy 70 21.1 64 17.8 82 82 S 17 28 30.11 1020 10 16 0.00 0.00
9:17 am 09:17 Cloudy 70 21 63 17 78 78 S 21 33 30.08 1019 10 16 0.00 0.00
9:36 am 09:36 Partly Cloudy 72 22 64 18 78 78 S 20 31 30.07 1018 10 16 0.00 0.00
9:56 am 09:56 Sunny 73 22.8 63 17.2 71 71 S 20 31 30.11 1020 10 16 0.00 0.00
10:35 am 10:35 Mostly Cloudy 75 24 63 17 65 65 SSW 20 31 30.04 1017 10 16 0.00 0.00
10:56 am 10:56 Mostly Cloudy 75 23.9 63 17.2 66 66 S 17 28 30.09 1019 10 16 0.00 0.00
11:12 am 11:12 Mostly Cloudy 75 24 63 17 65 65 SSW 20 31 30.03 1017 10 16 0.00 0.00
11:56 am 11:56 Mostly Cloudy 77 25 63 17.2 62 62 S 18 30 30.07 1018 10 16 0.00 0.00
12:56 pm 12:56 Mostly Cloudy 77 25 64 17.8 64 64 S 14 22 30.05 1018 10 16 0.00 0.00
1:56 pm 13:56 Mostly Cloudy 80 26.7 63 17.2 56 56 S 21 33 30.01 1016 10 16 0.00 0.00
2:56 pm 14:56 Mostly Cloudy 80 26.7 63 17.2 56 56 S 20 31 29.99 1016 10 16 0.00 0.00
3:56 pm 15:56 Mostly Cloudy 80 26.7 64 17.8 58 58 S 22 35 29.96 1015 10 16 0.00 0.00
4:56 pm 16:56 Cloudy 79 26.1 64 17.8 60 60 SSE 23 37 29.94 1014 10 16 0.00 0.00
5:56 pm 17:56 Mostly Cloudy 79 26.1 65 18.3 62 62 SSE 28 44 29.93 1014 10 16 0.00 0.00
6:56 pm 18:56 Cloudy 76 24.4 64 17.8 67 67 SSE 28 44 29.93 1014 10 16 0.00 0.00
7:56 pm 19:56 Cloudy 73 22.8 64 17.8 74 74 S 31 50 29.91 1013 10 16 0.00 0.00
8:27 pm 20:27 Cloudy 72 22 64 18 78 78 S 22 35 29.88 1012 10 16 0.00 0.00
8:56 pm 20:56 Cloudy 72 22.2 65 18.3 79 79 S 22 35 29.92 1013 10 16 0.00 0.00
9:56 pm 21:56 Cloudy 70 21.1 64 17.8 82 82 S 28 44 29.91 1013 10 16 0.00 0.00
10:56 pm 22:56 Cloudy 70 21.1 64 17.8 82 82 S 22 35 29.96 1015 10 16 0.00 0.00
11:56 pm 23:56 Cloudy 69 20.6 64 17.8 84 84 S 18 30 29.97 1015 10 16 0.00 0.00

Powered by AerisWeather